Погода в Елабуге

Погода в Елабуге : погода сейчас, прогноз погоды и архив. Всё, что Вы хотите узнать о погоде в Елабуге!

Поиск расширенной информации на нашем сайте:

Другие новости

Новости СМИ2

Главная страница сайта

Новости сайта

03.07.2017

Напоминаем, что на нашем специализированном сайте Метеоцентр.Азия вы можете получить высокодетализированные автоматические прогнозы погоды по пунктам России, СНГ и мира в авиационном формате (включающие направление и скорость ветра, видимость, явления погоды, количество и форму облачности, нижнюю и верхнюю границу облачности).

Рекомендуем: http://teplo-dim.com/ купити електрокамін у львові - каміни електричні електрокаміни.

Погода в Елабуге - сегодня

Время (UTC), дата Ветер
(°,м/с) 
Видим.   Явления Облачность Т
(°С)
Тd
(°С)
f(%) Тe
(°С)
Pmin
(гПа)
dP
(гПа)
Po
(мм)
O2
(г/м3)
Тmin Tmax R s Состояние
почвы
03 16.08.17 020 (С) 20000 м    6/6 600 м кучево-дожд. 
[Cb cap]
+22.5 +15.7 65 +32  1013.9  -0.5  755  278           
06 16.08.17 020 (С) 20000 м    3/3 1000 м 
[Cu med, cong]
+23.4 +15.4 61 +33  1013.5  -0.4  755  277           
09 16.08.17 020 (С) 4{10}  20000 м    ясно 
+21.7 +15.2 67 +31  1013.3  -0.2  755  278    +23.6       
12 16.08.17 010 (С) 3{10}  20000 м    ясно 
+18.1 +15 82 +27  1014.2  0.8  755  282           
15 16.08.17 360 (С) 20000 м    ясно 
+16.6 +15.1 91 +26  1014.5  0.3  755  284           
18 16.08.17 010 (С) 20000 м    3/3 300 м 
[St]
+15.8 +14.7 93 +25  1014.4  0.1  755  285           
21 16.08.17 010 (С) 20000 м    1/1 300 м 
[St]
+16.1 +14.4 90 +23  1014.9  0.5  756  285  +15.8        сухая 
00 17.08.17 030 (СВ) 20000 м    6/1 1000 м средняя 
[Sc|Ac trans]
+20.2 +14.2 68 +27  1015.2  0.3  756  281           
03 17.08.17 020 (С) 20000 м    6/6 600 м 
[Cu med, cong]
+22.7 +14.9 61 +31  1014.3  -0.8  755  278           
06 17.08.17 020 (С) 20000 м    3/3 600 м 
[Cu hum]
+24.3 +14.7 55 +32  1013.3  -1  755  276           
09 17.08.17 020 (С) 20000 м    1/0 средняя 
[Ac trans]
+23.6 +15.2 59 +32  1013  -0.3  754  277    +24.4       
12 17.08.17 060 (СВ) 20000 м    1/0 средняя 
[Ac trans]
+19.2 +14.2 73 +28  1013.5  0.4  755  281           
15 17.08.17 110 (В) 20000 м    ясно 
+16.5 +14.7 89 +25  1013.4  0.1  755  284           
18 17.08.17 010 (С) 20000 м    8/5 1000 м средняя 
[Sc|Ac trans]
+16.7 +14.8 89 +26  1013.5  755  283           
21 17.08.17 080 (В) 20000 м  в посл. час ливневой дождь  9/8 600 м кучево-дожд., средняя 
[Cb cap|Ac trans]
+16.7 +16 96 +28  1014.1  0.6  755  283  +16      влажная 
00 18.08.17 тихо ()   10 км  слаб. ливневой дождь  10/10 570 м кучево-дожд. 
[Cb cap]
+17 +15.8 93 +27  1015.2  1.2  756  283           
03 18.08.17 170 (Ю) 20000 м  {ливн. осадки}  9/6 600 м кучево-дожд., средняя 
[Cb cap|Ac trans]
+19.7 +15.8 78 +31  1014.4  -0.8  755  280           
06 18.08.17 тихо ()   20000 м  {ливн. осадки}  9/9 660 м кучево-дожд. 
[Cb cap]
+21.2 +15.7 71 +31  1013.7  -0.6  755  279           
09 18.08.17 130 (ЮВ) 20000 м    5/0 средняя, верхняя 
[Ac trans|Ci fib]
+21.5 +16.5 73 +33  1013.2  -0.5  755  278    +22.5     
12 18.08.17 150 (ЮВ) 20000 м    4/0 средняя 
[Ac lent]
+17.5 +16.3 93 +29  1013.8  0.5  755  282           
15 18.08.17 150 (ЮВ) 20000 м    9/9 700 м кучево-дожд. 
[Cb cap]
+18.3 +16.7 90 +31  1013.3  -0.5  755  281           
18 18.08.17 130 (ЮВ) 20000 м    9/6 600 м кучево-дожд., средняя 
[Cb cap|Ac trans]
+17.6 +16.3 92 +29  1012.7  -0.5  754  282           
21 18.08.17 150 (ЮВ) 20000 м    8/4 600 м кучево-дожд., средняя, верхняя 
[Cb cap|Ac trans|Ci fib]
+17.2 +15.9 92 +28  1012.8  754  282  +17.2        влажная 
00 19.08.17 180 (Ю) 20000 м    8/5 600 м кучево-дожд., верхняя 
[Cb cap|Ci fib]
+22.5 +18.6 79 +38  1012.8  0.1  754  276           
03 19.08.17 260 (З) 20000 м    5/3 600 м кучево-дожд., верхняя 
[Cb cap|Ci fib]
+26.2 +20.3 70 +45  1011.8  -0.8  754  272           
Время (UTC), дата Ветер
(°,м/с) 
Видим.   Явления Облачность Т
(°С)
Тd
(°С)
f(%) Тe
(°С)
Pmin
(гПа)
dP
(гПа)
Po
(мм)
O2
(г/м3)
Тmin Tmax R s Состояние
почвы

Для получения пояснительной информации подведите курсор к названию столбца.

ПОГОДА в Елабуге - архив

Всё, что Вы хотите узнать о погоде в Елабуге - удобно и подробно!

Выберите нужную дату (начиная с 1 января 2015* года) и нажмите кнопку "Найти".
Будут отображены архивные сводки погоды по пункту Елабуга, начиная с указанной даты.


Отображать данные в формате CSV (для использования в таблицах Excel)


Внимание! Наш архив погоды предназначен исключительно для личного некоммерческого использования в познавательных целях. Если Вам необходимы официальные справки о состоянии погоды (для производственных, юридических, коммерческих и т.п. целей), обращайтесь в органы Росгидромета.

*Примечание: данная дата относится к архиву по метеостанциям СССР (Россия, СНГ, Балтия).
Архив по метеостанциям Зарубежной Европы и Азии (кроме Китая) хранится 10 дней, по другим регионам земного шара (Китай, Африка, Америка, Австралия, Океания) - 1 день.

Елабуга - район местоположения метеостанции


Название, широта, долгота, высота метеостанции:
Елабуга 48.8°ш. 135.9°д. 58 м над ур. моря [Российская Федерация]

Дополнительная информация

В oтличие oт бoльшинства пoгoдных сайтoв мы публикуем пoдрoбную метеoинфoрмацию в детальнoм прoфессиoнальнoм фoрмате.

Характеристики температуры и влажнoсти вoздуха измеряются на высoте 2 м в тени вдали oт зданий и деревьев.
Скoрoсть ветра измеряется на высoте 10 м (на урoвне рoста челoвека скoрoсть ветра ниже в 1.5-2 раза). Если метеoстанция нахoдится в гoрoде или в лесу, тo скoрoсть ветра занижена на 2-4 м/с пo сравнению с oткрытым местoм. Скoрoсть ветра над акватoриями крупных рек и oзёр, а также на вершинах хoлмoв на 2-5 м/с выше, чем в oбычных услoвиях.
Атмoсфернoе давление в разных тoчках местнoсти мoжет значительнo oтличаться oт давления на метеoстанции, в зависимoсти oт услoвий рельефа (при пoдъёме на 10 м давление пoнижается примернo на 1 мм рт.ст.).